STARLINK-35353

Last updated on Mon Oct 20 2025 00:02:05 GMT+0000 (Coordinated Universal Time)

1 65669U 25211T 25292.11220718 .00099435 00000+0 18031-2 0 9999 2 65669 97.6016 334.2762 0001123 99.7292 260.4085 15.49248621 5726
UTC large
Height (km)
Speed (km/s)
/
Latitude / Longitude
Inclination (degrees)
Orbital Period (minutes)
Azimuth
Elevation
Range (km)
Doppler Factor

Next 0 passes for location: London (51.5072 / 0.1276)

Sorry there are no passes over London.